STARLINK-4722 (53775 NORAD) Tracking and Keplerian Element Data

This shows tracking and keplerian element data for the satellite.

Feedback or suggestion? Click here.




ElementValue
Catalog53775
NameSTARLINK-4722
Epoch Orbit1106
Epoch Day325.33334491
Epoch Year2022
RAAN280.9142
Inclination53.2169
Eccentricity0.0001577
Argument of Perigee69.0404
Mean Anonmoly14.7878
Mean Motion15.08848105
Decay Rate0.00065537
L11 53775U 22111C 22325.33334491 .00065537 00000+0 40970-2 0 9995
L22 53775 53.2169 280.9142 0001577 69.0404 14.7878 15.08848105 11067



Live tracking and technical data element details for STARLINK-4722 (NORAD 53775). STARLINK-4722 can be tracked NOW for your location showing map with azimuth and elevation plus other details from your city location.







IsCatalogInMostPopularTable: catalog: 53775, numindb: -1

Insert: records affected: 1


GetName: 53775 STARLINK-4722

Hit Count: inserted at: Thu, 08 Dec 2022 09:07:43 GMT